Charlevoix, MI

11:14 PM EST on November 22, 2017 (GMT -0500)
Charlevoix Municipal

Weather History for KCVX - May, 2013

Change the Weather History Date:

Friday, May 31, 2013

  Actual Average Record
Temperature  
Mean Temperature 68 °F -  
Max Temperature 77 °F 65 °F 84 °F (2011)
Min Temperature 59 °F 46 °F 39 °F (2001)
Cooling Degree Days 3    
Growing Degree Days 18 (Base 50)    
Moisture  
Dew Point 63 °F    
Average Humidity 83    
Maximum Humidity 99    
Minimum Humidity 59    
Precipitation  
Precipitation 0.00 in - - ()
Sea Level Pressure  
Sea Level Pressure 29.83 in    
Wind  
Wind Speed 8 mph (SSW)    
Max Wind Speed 17 mph    
Max Gust Speed 24 mph    
Visibility 10 miles    
Events Rain    
Averages and records for this station are not official NWS values.
T = Trace of Precipitation, MM = Missing Value Source: NWS Daily Summary

Daily Weather History Graph

Daily Weather History Graph

Search for Another Location

Airport or City:

Trip Planner

Search our weather history database for the weather conditions in past years. The results will help you decide how hot, cold, wet, or windy it might be!

Date:

Astronomy

May. 31, 2013 Rise Set
Actual Time 5:56 AM EDT 9:21 PM EDT
Civil Twilight 5:20 AM EDT 9:57 PM EDT
Nautical Twilight 4:32 AM EDT 10:45 PM EDT
Astronomical Twilight 3:31 AM EDT 11:47 PM EDT
Moon 1:41 AM EDT (5/31) 1:26 PM EDT (5/31)
Length of Visible Light 16h 37m
Length of Day
15h 24m
Waning Gibbous, 51% of the Moon is Illuminated
May 31
Waning Gibbous
May 31
Last Quarter
Jun 8
New
Jun 16
First Quarter
Jun 23
Full

Hourly Weather History & Observations

Time (EDT) Temp. Dew Point Humidity Pressure Visibility Wind Dir Wind Speed Gust Speed Precip Events Conditions
12:15 AM 71.2 °F 65.3 °F 81% 29.93 in 10.0 mi SSW 6.9 mph 24.2 mph N/A Rain Light Rain
12:34 AM 71.8 °F 65.3 °F 80% 29.91 in 10.0 mi SSE 12.7 mph 18.4 mph N/A   Mostly Cloudy
12:54 AM 70.0 °F 66.2 °F 88% 29.92 in 10.0 mi South 9.2 mph 16.1 mph N/A Rain Light Rain
1:15 AM 67.6 °F 66.2 °F 95% 29.92 in 4.0 mi ESE 11.5 mph - N/A Rain Light Rain
1:34 AM 67.8 °F 66.2 °F 95% 29.90 in 10.0 mi SE 9.2 mph - N/A   Scattered Clouds
1:54 AM 67.6 °F 66.4 °F 96% 29.89 in 10.0 mi SE 8.1 mph - N/A   Scattered Clouds
2:14 AM 67.1 °F 66.2 °F 97% 29.89 in 10.0 mi SE 8.1 mph - N/A   Clear
2:35 AM 67.1 °F 66.4 °F 98% 29.88 in 10.0 mi SE 6.9 mph - N/A   Clear
2:54 AM 67.1 °F 66.6 °F 98% 29.87 in 10.0 mi SE 6.9 mph - N/A   Clear
3:14 AM 67.1 °F 66.7 °F 99% 29.87 in 10.0 mi SE 8.1 mph - N/A   Clear
3:35 AM 67.6 °F 67.1 °F 98% 29.86 in 10.0 mi SSE 6.9 mph - N/A   Clear
3:54 AM 68.0 °F 67.5 °F 98% 29.85 in 10.0 mi SSE 6.9 mph - N/A   Clear
4:15 AM 68.2 °F 67.5 °F 98% 29.84 in 10.0 mi SSE 8.1 mph - N/A   Clear
4:34 AM 68.4 °F 67.5 °F 97% 29.83 in 10.0 mi SSE 8.1 mph - N/A   Clear
4:54 AM 68.4 °F 67.5 °F 97% 29.83 in 10.0 mi SSE 8.1 mph - N/A   Clear
5:15 AM 68.4 °F 67.6 °F 98% 29.83 in 10.0 mi SSE 6.9 mph - N/A   Clear
5:34 AM 68.4 °F 67.5 °F 97% 29.84 in 10.0 mi SSE 5.8 mph - N/A   Scattered Clouds
5:54 AM 69.1 °F 67.5 °F 95% 29.84 in 10.0 mi South 10.4 mph 16.1 mph N/A   Scattered Clouds
6:14 AM 69.8 °F 67.1 °F 91% 29.83 in 10.0 mi South 8.1 mph 17.3 mph N/A   Clear
6:34 AM 69.8 °F 66.6 °F 89% 29.83 in 10.0 mi South 10.4 mph - N/A   Clear
6:55 AM 69.4 °F 66.6 °F 91% 29.82 in 10.0 mi South 6.9 mph - N/A   Clear
7:14 AM 69.3 °F 66.6 °F 91% 29.83 in 10.0 mi South 10.4 mph - N/A   Clear
7:34 AM 69.8 °F 65.8 °F 87% 29.83 in 10.0 mi South 11.5 mph 16.1 mph N/A   Scattered Clouds
7:55 AM 70.2 °F 65.5 °F 85% 29.82 in 10.0 mi South 8.1 mph - N/A   Overcast
8:14 AM 70.9 °F 65.5 °F 83% 29.82 in 10.0 mi South 11.5 mph - N/A   Mostly Cloudy
8:34 AM 70.9 °F 65.5 °F 83% 29.82 in 10.0 mi South 9.2 mph 18.4 mph N/A   Scattered Clouds
8:54 AM 71.6 °F 64.6 °F 78% 29.82 in 10.0 mi South 12.7 mph 19.6 mph N/A   Scattered Clouds
9:14 AM 70.9 °F 63.9 °F 78% 29.82 in 10.0 mi South 10.4 mph - N/A   Mostly Cloudy
9:35 AM 70.7 °F 63.9 °F 79% 29.83 in 10.0 mi South 11.5 mph 18.4 mph N/A   Overcast
9:54 AM 70.9 °F 64.4 °F 80% 29.83 in 10.0 mi South 11.5 mph 18.4 mph N/A   Overcast
10:14 AM 70.9 °F 64.2 °F 79% 29.84 in 10.0 mi SSW 15.0 mph 21.9 mph N/A   Overcast
10:35 AM 68.9 °F 64.6 °F 86% 29.85 in 10.0 mi SSW 15.0 mph 21.9 mph N/A   Overcast
10:54 AM 70.5 °F 65.5 °F 84% 29.86 in 10.0 mi SSW 13.8 mph 18.4 mph N/A   Overcast
11:14 AM 70.9 °F 64.4 °F 80% 29.86 in 10.0 mi SSW 12.7 mph 23.0 mph N/A   Overcast
11:35 AM 72.7 °F 64.2 °F 75% 29.86 in 10.0 mi SSW 13.8 mph 20.7 mph N/A   Mostly Cloudy
11:54 AM 73.6 °F 63.9 °F 72% 29.85 in 10.0 mi SSW 16.1 mph 24.2 mph N/A   Mostly Cloudy
12:15 PM 73.9 °F 63.1 °F 69% 29.84 in 10.0 mi SSW 13.8 mph 23.0 mph N/A   Scattered Clouds
12:34 PM 74.1 °F 63.1 °F 68% 29.84 in 10.0 mi SSW 10.4 mph 19.6 mph N/A   Scattered Clouds
12:54 PM 75.6 °F 62.6 °F 64% 29.85 in 10.0 mi SSW 17.3 mph 24.2 mph N/A   Clear
1:15 PM 67.5 °F 60.4 °F 78% 29.86 in 10.0 mi West 15.0 mph 23.0 mph N/A   Scattered Clouds
1:34 PM 70.0 °F 61.9 °F 75% 29.86 in 10.0 mi WSW 9.2 mph - N/A   Clear
1:54 PM 71.2 °F 62.8 °F 75% 29.85 in 10.0 mi WNW 8.1 mph - N/A   Clear
2:15 PM 70.2 °F 62.4 °F 76% 29.84 in 10.0 mi West 6.9 mph - N/A   Clear
2:34 PM 73.6 °F 63.9 °F 72% 29.83 in 10.0 mi SW 5.8 mph - N/A   Clear
2:54 PM 75.7 °F 63.1 °F 65% 29.82 in 10.0 mi SSW 6.9 mph - N/A   Clear
3:15 PM 77.5 °F 62.4 °F 59% 29.82 in 10.0 mi SW 10.4 mph 17.3 mph N/A   Clear
3:34 PM 73.0 °F 61.5 °F 67% 29.82 in 10.0 mi WNW 3.5 mph - N/A   Clear
3:54 PM 74.3 °F 63.9 °F 70% 29.81 in 10.0 mi WNW 5.8 mph - N/A   Clear
4:14 PM 70.2 °F 62.1 °F 75% 29.82 in 10.0 mi WNW 9.2 mph - N/A   Clear
4:34 PM 70.2 °F 61.5 °F 74% 29.82 in 10.0 mi West 10.4 mph - N/A   Clear
4:55 PM 70.9 °F 62.4 °F 75% 29.82 in 10.0 mi West 10.4 mph - N/A   Clear
5:14 PM 72.7 °F 63.1 °F 72% 29.82 in 10.0 mi West 10.4 mph - N/A   Clear
5:34 PM 72.0 °F 62.2 °F 71% 29.82 in 10.0 mi WNW 9.2 mph - N/A   Clear
5:55 PM 70.7 °F 61.7 °F 73% 29.81 in 10.0 mi West 8.1 mph - N/A   Clear
6:14 PM 69.4 °F 60.8 °F 74% 29.81 in 10.0 mi West 9.2 mph - N/A   Clear
6:34 PM 70.0 °F 61.0 °F 73% 29.81 in 10.0 mi West 5.8 mph - N/A   Scattered Clouds
6:54 PM 70.7 °F 61.9 °F 74% 29.80 in 10.0 mi WSW 4.6 mph - N/A   Scattered Clouds
7:14 PM 74.3 °F 63.1 °F 68% 29.80 in 10.0 mi SSW 3.5 mph - N/A   Clear
7:35 PM 68.9 °F 60.1 °F 73% 29.79 in 10.0 mi Calm Calm - N/A   Clear
7:54 PM 62.8 °F 56.3 °F 79% 29.80 in 10.0 mi NNW 4.6 mph - N/A   Clear
8:14 PM 59.7 °F 55.6 °F 86% 29.80 in 10.0 mi Calm Calm - N/A   Clear
8:35 PM 61.0 °F 56.8 °F 86% 29.80 in 10.0 mi Calm Calm - N/A   Clear
8:54 PM 61.9 °F 57.6 °F 86% 29.78 in 10.0 mi Calm Calm - N/A   Clear
9:14 PM 64.4 °F 59.0 °F 83% 29.78 in 10.0 mi Calm Calm - N/A   Clear
9:35 PM 63.9 °F 59.2 °F 85% 29.78 in 10.0 mi Calm Calm - N/A   Clear
9:54 PM 64.6 °F 59.7 °F 84% 29.78 in 10.0 mi Calm Calm - N/A   Clear
10:14 PM 63.9 °F 60.8 °F 90% 29.79 in 10.0 mi Calm Calm - N/A   Mostly Cloudy
10:35 PM 65.1 °F 61.9 °F 89% 29.80 in 10.0 mi Calm Calm - N/A   Overcast
10:54 PM 59.9 °F 56.8 °F 90% 29.79 in 10.0 mi Calm Calm - N/A   Overcast
11:14 PM 61.2 °F 58.3 °F 90% 29.79 in 10.0 mi Calm Calm - N/A   Overcast
11:35 PM 62.1 °F 59.5 °F 91% 29.79 in 10.0 mi Calm Calm - N/A   Overcast
11:54 PM 65.1 °F 61.7 °F 89% 29.79 in 10.0 mi Calm Calm - N/A   Overcast